No;Time;Interval(mi);Indoor Humidity(%);Indoor Temperature(�C);Outdoor Humidity(%);Outdoor Temperature(�C);Absolute Pressure(Hpa);Wind(m/s);Gust(m/s);Direction;Relative Pressure(Hpa);Dewpoint(�C);Windchill(�C);Total Rainfall(mm)
1;2016-12-01 00:03:02;10;33;17.3;77;-1.8;1027.5;0.0;0.0;SW;1030.7;-5.3;-1.8;2496.9;
2;2016-12-01 00:13:02;10;33;17.3;77;-1.7;1027.5;0.0;0.0;SW;1030.7;-5.2;-1.7;2496.9;
3;2016-12-01 00:23:02;10;33;17.2;78;-1.4;1027.4;0.0;0.0;SW;1030.6;-4.7;-1.4;2496.9;
4;2016-12-01 00:33:02;10;34;17.2;78;-1.3;1027.5;0.0;0.0;SW;1030.7;-4.6;-1.3;2496.9;
5;2016-12-01 00:43:02;10;34;17.2;80;-1.1;1027.3;0.0;0.0;SW;1030.5;-4.1;-1.1;2496.9;
6;2016-12-01 00:53:02;10;34;17.2;80;-1.2;1027.5;0.0;0.0;SW;1030.7;-4.2;-1.2;2496.9;
7;2016-12-01 01:03:02;10;34;17.2;80;-1.2;1027.5;0.0;0.0;SW;1030.7;-4.2;-1.2;2496.9;
8;2016-12-01 01:13:02;10;34;17.2;80;-1.2;1027.7;0.0;0.0;SW;1030.9;-4.2;-1.2;2496.9;
9;2016-12-01 01:23:02;10;34;17.2;80;-1.2;1027.6;0.0;0.0;SW;1030.8;-4.2;-1.2;2496.9;
10;2016-12-01 01:33:02;10;34;17.2;80;-1.3;1027.5;0.0;0.0;S;1030.7;-4.3;-1.3;2496.9;
11;2016-12-01 01:43:02;10;35;17.2;81;-1.3;1027.5;0.0;0.0;S;1030.7;-4.1;-1.3;2496.9;
12;2016-12-01 01:53:02;10;35;17.2;81;-1.2;1027.4;0.0;0.0;S;1030.6;-4.0;-1.2;2496.9;
13;2016-12-01 02:03:02;10;35;17.2;81;-1.3;1027.4;0.0;0.0;S;1030.6;-4.1;-1.3;2496.9;
14;2016-12-01 02:13:02;10;35;17.2;81;-1.4;1027.3;0.0;0.0;S;1030.5;-4.2;-1.4;2496.9;
15;2016-12-01 02:23:02;10;35;17.2;80;-1.8;1027.3;0.0;0.0;S;1030.5;-4.8;-1.8;2496.9;
16;2016-12-01 02:33:02;10;35;17.2;76;-2.1;1027.2;0.0;0.0;S;1030.4;-5.8;-2.1;2496.9;
17;2016-12-01 02:43:02;10;35;17.3;76;-2.2;1026.9;0.0;0.0;S;1030.1;-5.9;-2.2;2496.9;
18;2016-12-01 02:53:02;10;35;17.3;76;-2.2;1026.9;0.0;0.0;S;1030.1;-5.9;-2.2;2496.9;
19;2016-12-01 03:03:02;10;35;17.3;76;-2.4;1026.9;0.0;0.0;S;1030.1;-6.0;-2.4;2496.9;
20;2016-12-01 03:13:02;10;35;17.3;76;-2.5;1026.8;0.0;0.0;S;1030.0;-6.1;-2.5;2496.9;
21;2016-12-01 03:23:02;10;35;17.3;76;-2.6;1026.7;0.0;0.0;S;1029.9;-6.2;-2.6;2496.9;
22;2016-12-01 03:33:02;10;35;17.3;76;-2.7;1026.6;0.0;0.0;S;1029.8;-6.3;-2.7;2496.9;
23;2016-12-01 03:43:02;10;35;17.3;77;-2.7;1026.6;0.0;0.0;S;1029.8;-6.2;-2.7;2496.9;
24;2016-12-01 03:53:02;10;35;17.3;77;-2.7;1026.4;0.0;0.0;S;1029.6;-6.2;-2.7;2496.9;
25;2016-12-01 04:03:02;10;35;17.3;77;-2.7;1026.4;0.0;0.0;S;1029.6;-6.2;-2.7;2496.9;
26;2016-12-01 04:13:02;10;35;17.3;77;-2.7;1026.5;0.0;0.0;S;1029.7;-6.2;-2.7;2496.9;
27;2016-12-01 04:23:02;10;35;17.2;78;-2.7;1026.4;0.0;0.0;S;1029.6;-6.0;-2.7;2496.9;
28;2016-12-01 04:33:02;10;35;17.2;78;-2.6;1026.4;0.0;0.0;S;1029.6;-5.9;-2.6;2496.9;
29;2016-12-01 04:43:02;10;35;17.3;78;-2.7;1026.3;0.0;0.0;S;1029.5;-6.0;-2.7;2496.9;
30;2016-12-01 04:53:02;10;35;17.3;78;-2.7;1026.2;0.0;0.0;S;1029.4;-6.0;-2.7;2496.9;
31;2016-12-01 05:03:02;10;35;17.3;78;-2.8;1026.3;0.0;0.0;S;1029.5;-6.1;-2.8;2496.9;
32;2016-12-01 05:13:02;10;35;17.3;79;-2.6;1026.4;0.0;0.0;S;1029.6;-5.7;-2.6;2496.9;
33;2016-12-01 05:23:02;10;35;17.3;80;-2.2;1026.4;0.0;0.0;SE;1029.6;-5.2;-2.2;2496.9;
34;2016-12-01 05:33:02;10;35;17.3;80;-2.1;1026.4;0.0;0.0;SE;1029.6;-5.1;-2.1;2496.9;
35;2016-12-01 05:43:02;10;35;17.3;84;-1.9;1026.4;0.0;0.3;S;1029.6;-4.2;-1.9;2496.9;
36;2016-12-01 05:53:02;10;35;17.3;84;-1.9;1026.3;0.3;0.7;NW;1029.5;-4.2;-1.9;2496.9;
37;2016-12-01 06:03:02;10;35;17.3;84;-1.9;1026.5;0.0;0.0;NW;1029.7;-4.2;-1.9;2496.9;
38;2016-12-01 06:13:02;10;34;17.3;80;-2.1;1026.4;0.0;0.0;S;1029.6;-5.1;-2.1;2496.9;
39;2016-12-01 06:23:02;10;35;17.3;80;-2.2;1026.5;0.0;0.0;W;1029.7;-5.2;-2.2;2496.9;
40;2016-12-01 06:33:02;10;35;17.3;80;-2.2;1026.3;0.0;0.0;W;1029.5;-5.2;-2.2;2496.9;
41;2016-12-01 06:43:02;10;36;17.3;80;-2.2;1026.4;0.0;0.0;W;1029.6;-5.2;-2.2;2496.9;
42;2016-12-01 06:53:02;10;37;17.4;80;-2.1;1026.5;0.0;0.0;W;1029.7;-5.1;-2.1;2496.9;
43;2016-12-01 07:03:02;10;26;17.1;80;-2.2;1026.2;0.0;0.0;SW;1029.4;-5.2;-2.2;2496.9;
44;2016-12-01 07:13:02;10;28;16.7;80;-2.5;1026.2;0.0;0.0;SW;1029.4;-5.5;-2.5;2496.9;
45;2016-12-01 07:23:02;10;32;16.6;80;-2.6;1026.0;0.0;0.0;SW;1029.2;-5.6;-2.6;2496.9;
46;2016-12-01 07:33:02;10;33;16.6;80;-2.7;1025.8;0.0;0.0;SW;1029.0;-5.7;-2.7;2496.9;
47;2016-12-01 07:43:02;10;33;16.6;80;-2.6;1025.9;0.0;0.0;SW;1029.1;-5.6;-2.6;2496.9;
48;2016-12-01 07:53:02;10;34;16.6;80;-2.5;1025.9;0.0;0.0;SW;1029.1;-5.5;-2.5;2496.9;
49;2016-12-01 08:03:02;10;35;16.6;80;-2.3;1025.8;0.0;0.0;SW;1029.0;-5.3;-2.3;2496.9;
50;2016-12-01 08:13:02;10;35;16.6;81;-2.1;1025.7;0.0;0.0;SW;1028.9;-4.9;-2.1;2496.9;
51;2016-12-01 08:23:02;10;35;16.7;85;-1.9;1025.6;0.0;0.0;SW;1028.8;-4.1;-1.9;2496.9;
52;2016-12-01 08:33:02;10;35;16.7;85;-1.5;1025.6;0.0;0.0;SW;1028.8;-3.7;-1.5;2496.9;
53;2016-12-01 08:43:02;10;36;16.8;84;-0.5;1025.6;0.0;0.0;SW;1028.8;-2.9;-0.5;2496.9;
54;2016-12-01 08:53:02;10;36;16.8;84;-0.3;1025.5;0.0;0.0;S;1028.7;-2.7;-0.3;2496.9;
55;2016-12-01 09:04:02;11;36;16.9;84;-0.1;1025.6;0.0;0.0;S;1028.8;-2.5;-0.1;2496.9;
56;2016-12-01 09:14:02;10;36;16.9;83;0.3;1025.7;0.0;0.0;S;1028.9;-2.2;0.3;2496.9;
57;2016-12-01 09:24:02;10;35;17.0;82;0.5;1025.7;0.0;0.0;S;1028.9;-2.2;0.5;2496.9;
58;2016-12-01 09:34:00;10;36;17.0;80;0.9;1025.9;0.0;0.0;S;1029.1;-2.2;0.9;2496.9;
59;2016-12-01 09:44:00;10;36;17.0;78;1.2;1025.9;0.0;0.0;S;1029.1;-2.2;1.2;2496.9;
60;2016-12-01 09:54:00;10;36;17.1;76;1.6;1025.7;0.0;0.0;S;1028.9;-2.2;1.6;2496.9;
61;2016-12-01 10:04:01;10;36;17.1;74;2.0;1025.7;0.0;0.0;SW;1028.9;-2.1;2.0;2496.9;
62;2016-12-01 10:14:01;10;36;17.2;73;2.4;1025.6;0.0;0.0;SE;1028.8;-1.9;2.4;2496.9;
63;2016-12-01 10:24:01;10;36;17.2;71;2.9;1025.5;0.0;0.0;SW;1028.7;-1.8;2.9;2496.9;
64;2016-12-01 10:34:01;10;37;17.3;72;3.1;1025.4;0.0;0.3;SW;1028.6;-1.5;3.1;2496.9;
65;2016-12-01 10:44:01;10;37;17.3;70;3.5;1025.2;0.0;0.0;SW;1028.4;-1.5;3.5;2496.9;
66;2016-12-01 10:54:01;10;37;17.4;70;3.9;1025.4;0.0;0.0;S;1028.6;-1.1;3.9;2496.9;
67;2016-12-01 11:04:01;10;37;17.4;69;4.1;1025.1;0.0;0.0;NW;1028.3;-1.1;4.1;2496.9;
68;2016-12-01 11:14:01;10;37;17.5;66;4.4;1025.1;0.0;0.0;N;1028.3;-1.4;4.4;2496.9;
69;2016-12-01 11:24:01;10;37;17.5;65;4.6;1024.8;0.0;0.0;N;1028.0;-1.4;4.6;2496.9;
70;2016-12-01 11:34:01;10;37;17.6;64;5.0;1024.9;0.0;0.7;NW;1028.1;-1.2;5.0;2496.9;
71;2016-12-01 11:44:01;10;37;17.6;63;5.4;1024.9;0.0;0.0;W;1028.1;-1.1;5.4;2496.9;
72;2016-12-01 11:54:01;10;37;17.6;60;5.9;1024.8;0.0;0.0;W;1028.0;-1.3;5.9;2496.9;
73;2016-12-01 12:04:01;10;37;17.7;57;6.3;1024.5;0.0;0.0;W;1027.7;-1.6;6.3;2496.9;
74;2016-12-01 12:14:01;10;37;17.7;56;7.8;1024.5;0.0;0.0;W;1027.7;-0.4;7.8;2496.9;
75;2016-12-01 12:24:01;10;38;17.8;54;9.2;1024.3;0.0;0.3;W;1027.5;0.4;9.2;2496.9;
76;2016-12-01 12:34:01;10;38;17.9;49;10.0;1024.2;0.0;0.3;W;1027.4;-0.2;10.0;2496.9;
77;2016-12-01 12:44:01;10;38;17.9;46;10.4;1024.1;0.0;0.0;W;1027.3;-0.7;10.4;2496.9;
78;2016-12-01 12:54:01;10;38;17.9;45;11.3;1024.2;0.0;0.0;W;1027.4;-0.2;11.3;2496.9;
79;2016-12-01 13:04:01;10;38;18.0;43;11.8;1024.1;0.0;0.0;W;1027.3;-0.4;11.8;2496.9;
80;2016-12-01 13:14:01;10;38;18.0;42;11.8;1023.9;0.0;0.0;W;1027.1;-0.7;11.8;2496.9;
81;2016-12-01 13:24:01;10;38;18.1;41;11.7;1023.8;0.0;0.0;W;1027.0;-1.1;11.7;2496.9;
82;2016-12-01 13:34:01;10;38;18.1;42;11.0;1023.8;0.0;0.0;W;1027.0;-1.4;11.0;2496.9;
83;2016-12-01 13:44:01;10;38;18.1;44;10.4;1023.6;0.0;0.7;NW;1026.8;-1.3;10.4;2496.9;
84;2016-12-01 13:54:01;10;38;18.2;46;9.9;1023.6;0.0;0.0;NW;1026.8;-1.2;9.9;2496.9;
85;2016-12-01 14:04:01;10;38;18.2;48;8.7;1023.4;0.0;0.0;NW;1026.6;-1.7;8.7;2496.9;
86;2016-12-01 14:14:01;10;38;18.2;49;8.0;1023.4;0.0;0.0;NW;1026.6;-2.1;8.0;2496.9;
87;2016-12-01 14:24:01;10;38;18.2;50;7.6;1023.3;0.0;0.0;NW;1026.5;-2.2;7.6;2496.9;
88;2016-12-01 14:34:01;10;38;18.2;48;7.2;1023.3;0.0;0.0;NW;1026.5;-3.1;7.2;2496.9;
89;2016-12-01 14:44:01;10;38;18.2;49;6.8;1023.2;0.0;0.0;NW;1026.4;-3.2;6.8;2496.9;
90;2016-12-01 14:54:01;10;38;18.3;48;6.6;1023.1;0.0;0.0;NW;1026.3;-3.6;6.6;2496.9;
91;2016-12-01 15:04:01;10;38;18.3;48;6.5;1023.1;0.0;0.0;NW;1026.3;-3.7;6.5;2496.9;
92;2016-12-01 15:14:01;10;38;18.3;48;6.2;1023.1;0.0;0.0;NW;1026.3;-4.0;6.2;2496.9;
93;2016-12-01 15:24:01;10;38;18.3;49;5.9;1023.1;0.0;0.0;NW;1026.3;-4.0;5.9;2496.9;
94;2016-12-01 15:34:01;10;38;18.3;50;5.6;1023.0;0.0;0.0;NW;1026.2;-4.0;5.6;2496.9;
95;2016-12-01 15:44:01;10;38;18.3;51;5.3;1023.0;0.0;0.0;NW;1026.2;-4.0;5.3;2496.9;
96;2016-12-01 15:54:01;10;38;18.3;52;5.0;1022.8;0.0;0.0;NW;1026.0;-4.0;5.0;2496.9;
97;2016-12-01 16:04:01;10;38;18.3;54;4.4;1022.8;0.0;0.0;NW;1026.0;-4.1;4.4;2496.9;
98;2016-12-01 16:14:01;10;38;18.3;55;3.8;1022.9;0.0;0.0;NW;1026.1;-4.4;3.8;2496.9;
99;2016-12-01 16:24:01;10;38;18.3;57;3.5;1022.9;0.0;0.0;NW;1026.1;-4.2;3.5;2496.9;
100;2016-12-01 16:34:01;10;38;18.3;57;3.1;1022.8;0.0;0.0;NW;1026.0;-4.6;3.1;2496.9;
101;2016-12-01 16:44:01;10;38;18.3;54;2.8;1022.8;0.0;0.0;NW;1026.0;-5.6;2.8;2496.9;
102;2016-12-01 16:54:01;10;38;18.3;55;2.5;1022.8;0.0;0.0;NW;1026.0;-5.6;2.5;2496.9;
103;2016-12-01 17:04:01;11;39;18.3;56;2.3;1022.6;0.0;0.0;NW;1025.8;-5.6;2.3;2496.9;
104;2016-12-01 17:14:01;10;39;18.3;58;2.2;1022.7;0.0;0.0;NW;1025.9;-5.2;2.2;2496.9;
105;2016-12-01 17:24:01;10;40;18.3;58;2.0;1022.5;0.0;0.0;NW;1025.7;-5.4;2.0;2496.9;
106;2016-12-01 17:34:01;10;36;18.3;61;1.8;1022.4;0.0;0.0;NW;1025.6;-4.9;1.8;2496.9;
107;2016-12-01 17:44:01;10;37;18.1;62;1.5;1022.1;0.0;0.0;NW;1025.3;-5.0;1.5;2496.9;
108;2016-12-01 17:54:01;10;37;18.1;62;1.4;1022.2;0.0;0.0;NW;1025.4;-5.1;1.4;2496.9;
109;2016-12-01 18:04:01;10;38;18.1;63;1.3;1022.2;0.0;0.0;NW;1025.4;-5.0;1.3;2496.9;
110;2016-12-01 18:14:01;10;38;18.1;64;1.2;1022.2;0.0;0.0;NW;1025.4;-4.8;1.2;2496.9;
111;2016-12-01 18:24:01;10;39;18.1;65;1.2;1022.1;0.0;0.0;NW;1025.3;-4.6;1.2;2496.9;
112;2016-12-01 18:34:01;10;39;18.1;66;1.3;1022.1;0.0;0.0;NW;1025.3;-4.3;1.3;2496.9;
113;2016-12-01 18:44:01;10;40;18.1;66;1.1;1022.2;0.0;0.0;NW;1025.4;-4.5;1.1;2496.9;
114;2016-12-01 18:54:01;10;38;18.1;67;1.0;1022.2;0.0;0.0;NW;1025.4;-4.4;1.0;2496.9;
115;2016-12-01 19:04:01;10;35;17.9;67;1.0;1022.0;0.0;0.0;NW;1025.2;-4.4;1.0;2496.9;
116;2016-12-01 19:14:01;10;39;17.7;70;0.9;1021.9;0.0;0.0;NW;1025.1;-3.9;0.9;2496.9;
117;2016-12-01 19:24:01;10;41;17.7;71;0.9;1021.9;0.0;0.0;NW;1025.1;-3.8;0.9;2496.9;
118;2016-12-01 19:34:01;10;42;17.7;72;0.9;1021.8;0.0;0.0;NW;1025.0;-3.6;0.9;2496.9;
119;2016-12-01 19:44:01;10;43;17.7;72;0.7;1021.7;0.0;0.0;NW;1024.9;-3.8;0.7;2496.9;
120;2016-12-01 19:54:01;10;42;17.8;73;0.6;1021.8;0.0;0.0;NW;1025.0;-3.7;0.6;2496.9;
121;2016-12-01 20:04:01;10;36;17.7;73;0.6;1021.7;0.0;0.0;NW;1024.9;-3.7;0.6;2496.9;
122;2016-12-01 20:14:01;10;38;17.7;73;0.5;1021.6;0.0;0.0;NW;1024.8;-3.8;0.5;2496.9;
123;2016-12-01 20:24:01;10;38;17.8;74;0.4;1021.7;0.0;0.0;NW;1024.9;-3.7;0.4;2496.9;
124;2016-12-01 20:34:01;10;39;17.8;74;0.4;1021.7;0.0;0.0;NW;1024.9;-3.7;0.4;2496.9;
125;2016-12-01 20:44:01;10;35;17.9;75;0.8;1021.6;0.0;0.0;NW;1024.8;-3.1;0.8;2496.9;
126;2016-12-01 20:54:01;10;36;17.7;75;0.7;1021.7;0.0;0.0;NW;1024.9;-3.2;0.7;2496.9;
127;2016-12-01 21:04:01;10;37;17.8;76;0.7;1021.7;0.0;0.0;NW;1024.9;-3.0;0.7;2496.9;
128;2016-12-01 21:14:01;10;38;17.9;76;0.6;1021.7;0.0;0.0;NW;1024.9;-3.1;0.6;2496.9;
129;2016-12-01 21:24:01;10;39;18.0;76;0.5;1021.8;0.0;0.0;NW;1025.0;-3.2;0.5;2496.9;
130;2016-12-01 21:34:01;10;39;18.0;76;0.2;1021.8;0.0;0.0;NW;1025.0;-3.5;0.2;2496.9;
131;2016-12-01 21:44:01;10;39;18.1;77;0.3;1021.6;0.0;0.0;NW;1024.8;-3.3;0.3;2496.9;
132;2016-12-01 21:54:01;10;39;18.2;77;0.1;1021.7;0.0;0.0;NW;1024.9;-3.4;0.1;2496.9;
133;2016-12-01 22:04:01;10;39;18.2;78;-0.1;1021.6;0.0;0.0;NW;1024.8;-3.5;-0.1;2496.9;
134;2016-12-01 22:14:01;10;40;18.3;78;-0.2;1021.6;0.0;0.0;NW;1024.8;-3.6;-0.2;2496.9;
135;2016-12-01 22:24:01;10;40;18.4;78;-0.1;1021.5;0.0;0.0;NW;1024.7;-3.5;-0.1;2496.9;
136;2016-12-01 22:34:01;10;40;18.5;78;-0.1;1021.5;0.0;0.0;NW;1024.7;-3.5;-0.1;2496.9;
137;2016-12-01 22:44:01;10;40;18.5;79;-0.3;1021.6;0.0;0.0;NW;1024.8;-3.5;-0.3;2496.9;
138;2016-12-01 22:54:01;10;40;18.5;79;-0.4;1021.6;0.0;0.0;NW;1024.8;-3.6;-0.4;2496.9;
139;2016-12-01 23:04:01;10;40;18.5;79;-0.4;1021.7;0.0;0.0;NW;1024.9;-3.6;-0.4;2496.9;
140;2016-12-01 23:14:01;10;39;18.4;79;-0.4;1021.7;0.0;0.0;NW;1024.9;-3.6;-0.4;2496.9;
141;2016-12-01 23:24:01;10;39;18.4;80;-0.4;1021.6;0.0;0.0;NW;1024.8;-3.4;-0.4;2496.9;
142;2016-12-01 23:34:01;10;39;18.3;80;0.0;1021.6;0.0;0.0;NW;1024.8;-3.0;0.0;2496.9;
143;2016-12-01 23:44:01;10;39;18.3;80;0.5;1021.5;0.0;0.0;NW;1024.7;-2.5;0.5;2496.9;
144;2016-12-01 23:54:01;10;39;18.2;81;0.9;1021.6;0.0;0.0;NW;1024.8;-2.0;0.9;2496.9;
145;2016-12-02 00:04:01;10;38;18.1;81;1.3;1021.4;0.0;0.0;NW;1024.6;-1.6;1.3;2496.9;
146;2016-12-02 00:14:01;10;36;17.9;81;1.5;1021.2;0.0;0.0;NW;1024.4;-1.4;1.5;2496.9;
147;2016-12-02 00:24:01;10;36;17.6;81;1.7;1021.1;0.0;0.0;NW;1024.3;-1.2;1.7;2496.9;
148;2016-12-02 00:34:01;10;36;17.5;80;1.9;1021.0;0.0;0.0;NW;1024.2;-1.2;1.9;2496.9;
149;2016-12-02 00:44:01;10;36;17.5;79;2.0;1020.9;0.0;0.0;NW;1024.1;-1.3;2.0;2496.9;
150;2016-12-02 00:54:01;10;37;17.4;78;2.1;1020.9;0.0;0.0;NW;1024.1;-1.3;2.1;2496.9;
151;2016-12-02 01:04:01;10;37;17.4;77;2.1;1020.7;0.0;0.0;NW;1023.9;-1.5;2.1;2496.9;
152;2016-12-02 01:14:01;10;37;17.4;76;2.3;1020.7;0.0;0.0;NW;1023.9;-1.5;2.3;2496.9;
153;2016-12-02 01:24:01;10;37;17.3;76;2.4;1020.6;0.0;0.0;NW;1023.8;-1.4;2.4;2496.9;
154;2016-12-02 01:34:01;10;37;17.3;76;2.5;1020.6;0.0;0.0;NW;1023.8;-1.3;2.5;2496.9;
155;2016-12-02 01:44:01;10;37;17.3;76;2.6;1020.6;0.0;0.0;NW;1023.8;-1.2;2.6;2496.9;
156;2016-12-02 01:54:01;10;37;17.3;75;2.7;1020.8;0.0;0.0;NW;1024.0;-1.3;2.7;2496.9;
157;2016-12-02 02:04:01;10;37;17.3;75;2.8;1020.6;0.0;0.0;NW;1023.8;-1.2;2.8;2496.9;
158;2016-12-02 02:14:01;10;37;17.2;75;2.8;1020.5;0.0;0.0;NW;1023.7;-1.2;2.8;2496.9;
159;2016-12-02 02:24:01;10;38;17.2;75;2.8;1020.5;0.0;0.0;NW;1023.7;-1.2;2.8;2496.9;
160;2016-12-02 02:34:01;10;38;17.2;74;2.8;1020.4;0.0;0.0;NW;1023.6;-1.4;2.8;2496.9;
161;2016-12-02 02:44:01;10;38;17.2;74;2.9;1020.4;0.0;0.0;NW;1023.6;-1.3;2.9;2496.9;
162;2016-12-02 02:54:01;10;38;17.2;78;3.0;1020.4;0.0;0.0;NW;1023.6;-0.5;3.0;2496.9;
163;2016-12-02 03:04:01;10;39;17.3;78;3.0;1020.1;0.0;0.0;NW;1023.3;-0.5;3.0;2496.9;
164;2016-12-02 03:14:01;10;38;17.3;74;2.9;1020.1;0.0;0.0;NW;1023.3;-1.3;2.9;2496.9;
165;2016-12-02 03:24:01;10;38;17.3;74;2.9;1020.1;0.0;0.0;NW;1023.3;-1.3;2.9;2496.9;
166;2016-12-02 03:34:01;10;38;17.3;74;2.8;1020.0;0.0;0.0;NW;1023.2;-1.4;2.8;2496.9;
167;2016-12-02 03:44:01;10;38;17.3;74;2.8;1019.9;0.0;0.0;NW;1023.1;-1.4;2.8;2496.9;
168;2016-12-02 03:54:01;10;38;17.3;74;2.7;1019.9;0.0;0.0;NW;1023.1;-1.5;2.7;2496.9;
169;2016-12-02 04:04:01;10;38;17.4;74;2.7;1019.7;0.0;0.0;NW;1022.9;-1.5;2.7;2496.9;
170;2016-12-02 04:14:01;10;39;17.4;74;2.6;1019.5;0.0;0.0;NW;1022.7;-1.6;2.6;2496.9;
171;2016-12-02 04:24:01;10;38;17.4;74;2.7;1019.6;0.0;0.0;NW;1022.8;-1.5;2.7;2496.9;
172;2016-12-02 04:34:01;10;38;17.4;74;2.7;1019.5;0.0;0.0;NW;1022.7;-1.5;2.7;2496.9;
173;2016-12-02 04:44:01;10;38;17.4;74;2.9;1019.4;0.0;0.0;NW;1022.6;-1.3;2.9;2496.9;
174;2016-12-02 04:54:01;10;39;17.4;79;3.0;1019.4;0.0;0.0;NW;1022.6;-0.3;3.0;2496.9;
175;2016-12-02 05:04:01;10;39;17.3;79;3.1;1019.5;0.0;0.0;NW;1022.7;-0.2;3.1;2496.9;
176;2016-12-02 05:14:01;10;38;17.3;79;3.2;1019.3;0.0;0.0;NW;1022.5;-0.1;3.2;2496.9;
177;2016-12-02 05:24:01;10;38;17.3;78;3.2;1019.2;0.0;0.3;NW;1022.4;-0.3;3.2;2496.9;
178;2016-12-02 05:34:01;10;38;17.4;78;3.2;1019.3;0.0;0.3;NW;1022.5;-0.3;3.2;2496.9;
179;2016-12-02 05:44:01;10;38;17.4;79;3.3;1019.3;0.0;0.0;NW;1022.5;0.0;3.3;2496.9;
180;2016-12-02 05:54:01;10;38;17.4;79;3.3;1019.4;0.0;0.3;SW;1022.6;0.0;3.3;2496.9;
181;2016-12-02 06:04:01;10;39;17.4;79;3.4;1019.4;0.0;0.0;SW;1022.6;0.1;3.4;2496.9;
182;2016-12-02 06:14:01;10;39;17.4;79;3.4;1019.5;0.0;0.0;SW;1022.7;0.1;3.4;2496.9;
183;2016-12-02 06:24:01;10;39;17.4;79;3.5;1019.3;0.0;0.7;SW;1022.5;0.2;3.5;2496.9;
184;2016-12-02 06:34:01;10;41;17.4;79;3.5;1019.3;0.0;0.0;SW;1022.5;0.2;3.5;2496.9;
185;2016-12-02 06:44:01;10;40;17.5;79;3.4;1019.4;0.0;0.3;SW;1022.6;0.1;3.4;2496.9;
186;2016-12-02 06:54:01;10;35;17.3;79;3.4;1019.3;0.0;0.0;SW;1022.5;0.1;3.4;2496.9;
187;2016-12-02 07:04:00;10;36;17.2;79;3.3;1019.2;0.0;0.0;SW;1022.4;0.0;3.3;2496.9;
188;2016-12-02 07:14:00;10;37;17.1;79;3.3;1019.3;0.0;0.0;SW;1022.5;0.0;3.3;2496.9;
189;2016-12-02 07:24:00;10;37;17.1;79;3.3;1019.3;0.0;0.0;SW;1022.5;0.0;3.3;2496.9;
190;2016-12-02 07:34:01;10;38;17.1;79;3.3;1019.5;0.0;0.0;SW;1022.7;0.0;3.3;2496.9;
191;2016-12-02 07:44:01;10;39;17.1;79;3.4;1019.4;0.0;0.0;SW;1022.6;0.1;3.4;2496.9;
192;2016-12-02 07:54:01;10;39;17.2;80;3.5;1019.4;0.0;0.0;SW;1022.6;0.4;3.5;2496.9;
193;2016-12-02 08:04:01;10;40;17.2;80;3.7;1019.5;0.0;0.0;SW;1022.7;0.6;3.7;2496.9;
194;2016-12-02 08:14:01;10;40;17.3;80;3.9;1019.7;0.0;0.0;SW;1022.9;0.8;3.9;2496.9;
195;2016-12-02 08:24:01;10;41;17.3;79;4.1;1019.6;0.0;0.0;SW;1022.8;0.8;4.1;2496.9;
196;2016-12-02 08:34:01;10;41;17.4;79;4.2;1019.6;0.0;0.0;SW;1022.8;0.9;4.2;2496.9;
197;2016-12-02 08:44:01;10;41;17.4;79;4.5;1019.6;0.0;0.0;SW;1022.8;1.2;4.5;2496.9;
198;2016-12-02 08:54:01;10;41;17.4;79;4.7;1019.6;0.0;0.0;SW;1022.8;1.4;4.7;2496.9;
199;2016-12-02 09:04:01;10;41;17.5;79;4.8;1019.7;0.0;0.0;SW;1022.9;1.5;4.8;2496.9;
200;2016-12-02 09:14:01;10;41;17.5;77;5.0;1019.5;0.3;0.7;W;1022.7;1.3;5.0;2496.9;
201;2016-12-02 09:24:01;10;41;17.6;77;5.0;1019.7;0.0;0.0;W;1022.9;1.3;5.0;2496.9;
202;2016-12-02 09:34:01;10;41;17.6;77;5.1;1019.7;0.3;1.0;W;1022.9;1.4;5.1;2496.9;
203;2016-12-02 09:44:01;10;42;17.6;77;5.2;1019.8;0.0;0.0;W;1023.0;1.5;5.2;2496.9;
204;2016-12-02 09:54:01;10;42;17.7;77;5.4;1019.7;0.0;0.0;W;1022.9;1.7;5.4;2496.9;
205;2016-12-02 10:04:01;10;42;17.7;77;5.6;1019.7;0.0;0.0;SW;1022.9;1.9;5.6;2496.9;
206;2016-12-02 10:14:01;10;42;17.8;76;5.9;1019.6;0.0;0.0;SW;1022.8;2.0;5.9;2496.9;
207;2016-12-02 10:24:01;10;42;17.8;75;6.1;1019.5;0.0;0.0;SW;1022.7;2.0;6.1;2496.9;
208;2016-12-02 10:34:01;10;42;17.8;74;6.5;1019.4;0.7;1.0;SW;1022.6;2.2;6.5;2496.9;
209;2016-12-02 10:44:01;10;42;17.9;73;6.7;1019.6;0.0;0.0;SW;1022.8;2.2;6.7;2496.9;
210;2016-12-02 10:54:01;10;42;17.9;72;7.0;1019.5;0.0;0.0;SW;1022.7;2.3;7.0;2496.9;
211;2016-12-02 11:04:01;10;42;17.9;72;7.2;1019.3;0.0;0.0;SW;1022.5;2.5;7.2;2496.9;
212;2016-12-02 11:14:01;10;43;18.0;71;7.2;1019.3;0.0;0.0;SW;1022.5;2.3;7.2;2496.9;
213;2016-12-02 11:24:01;10;44;18.0;71;7.3;1019.2;0.0;0.0;SW;1022.4;2.4;7.3;2496.9;
214;2016-12-02 11:34:01;10;44;18.0;71;7.5;1019.1;0.0;0.7;S;1022.3;2.6;7.5;2496.9;
215;2016-12-02 11:44:01;10;44;18.0;70;7.3;1019.1;0.0;0.0;SW;1022.3;2.2;7.3;2496.9;
216;2016-12-02 11:54:01;10;44;18.1;71;7.4;1019.0;0.0;0.0;SW;1022.2;2.5;7.4;2496.9;
217;2016-12-02 12:04:01;10;44;18.1;70;7.3;1019.0;0.0;0.7;S;1022.2;2.2;7.3;2496.9;
218;2016-12-02 12:14:01;10;44;18.1;71;7.4;1018.9;0.0;0.0;SW;1022.1;2.5;7.4;2496.9;
219;2016-12-02 12:24:01;10;44;18.2;71;7.4;1018.8;0.0;0.0;SW;1022.0;2.5;7.4;2496.9;
220;2016-12-02 12:34:01;10;44;18.2;71;7.5;1018.7;0.0;0.3;NW;1021.9;2.6;7.5;2496.9;
221;2016-12-02 12:44:01;10;44;18.2;72;7.7;1018.5;0.0;0.3;NW;1021.7;3.0;7.7;2496.9;
222;2016-12-02 12:54:01;10;44;18.2;73;7.8;1018.5;0.0;0.3;SW;1021.7;3.3;7.8;2496.9;
223;2016-12-02 13:04:01;10;44;18.2;74;7.8;1018.4;0.0;0.0;W;1021.6;3.5;7.8;2496.9;
224;2016-12-02 13:14:01;10;44;18.3;75;7.7;1018.3;0.3;1.0;N;1021.5;3.6;7.7;2496.9;
225;2016-12-02 13:24:01;10;44;18.3;77;7.6;1018.2;0.3;0.7;NW;1021.4;3.8;7.6;2496.9;
226;2016-12-02 13:34:01;10;44;18.3;78;7.6;1018.0;0.0;0.3;NW;1021.2;4.0;7.6;2496.9;
227;2016-12-02 13:44:01;10;45;18.3;79;7.6;1018.1;0.0;0.3;W;1021.3;4.2;7.6;2496.9;
228;2016-12-02 13:54:01;10;45;18.4;79;7.7;1018.0;0.0;0.0;SW;1021.2;4.3;7.7;2496.9;
229;2016-12-02 14:04:01;10;45;18.4;79;7.7;1018.1;0.3;0.7;SW;1021.3;4.3;7.7;2496.9;
230;2016-12-02 14:14:01;10;45;18.4;80;7.6;1018.0;0.0;0.3;SW;1021.2;4.4;7.6;2496.9;
231;2016-12-02 14:24:01;10;45;18.4;81;7.5;1017.9;0.0;0.3;SW;1021.1;4.5;7.5;2496.9;
232;2016-12-02 14:34:01;10;45;18.4;81;7.6;1017.8;0.0;0.0;SW;1021.0;4.5;7.6;2496.9;
233;2016-12-02 14:44:01;10;45;18.5;81;7.6;1017.8;0.3;1.0;SW;1021.0;4.5;7.6;2496.9;
234;2016-12-02 14:54:01;10;45;18.5;81;7.5;1017.8;0.7;1.4;NW;1021.0;4.5;6.9;2496.9;
235;2016-12-02 15:04:01;10;45;18.5;82;7.4;1017.7;0.3;1.0;NW;1020.9;4.5;7.4;2496.9;
236;2016-12-02 15:14:01;10;45;18.5;82;7.4;1017.7;0.0;0.0;SW;1020.9;4.5;7.4;2496.9;
237;2016-12-02 15:24:01;10;45;18.5;83;7.2;1017.8;0.3;1.4;NW;1021.0;4.5;6.6;2496.9;
238;2016-12-02 15:34:01;10;45;18.5;83;7.1;1017.6;0.3;0.7;NW;1020.8;4.4;7.1;2496.9;
239;2016-12-02 15:44:01;10;45;18.6;83;7.1;1017.5;0.0;0.0;NW;1020.7;4.4;7.1;2496.9;
240;2016-12-02 15:54:01;10;45;18.6;83;7.1;1017.4;0.0;0.0;W;1020.6;4.4;7.1;2496.9;
241;2016-12-02 16:04:01;10;45;18.6;83;7.0;1017.6;0.0;0.3;SW;1020.8;4.3;7.0;2496.9;
242;2016-12-02 16:14:01;10;45;18.6;83;7.0;1017.5;0.0;0.3;SW;1020.7;4.3;7.0;2496.9;
243;2016-12-02 16:24:01;10;45;18.6;85;6.9;1017.5;1.0;2.0;SE;1020.7;4.6;5.6;2496.9;
244;2016-12-02 16:34:01;10;45;18.6;85;6.9;1017.5;0.3;0.7;NW;1020.7;4.6;6.9;2496.9;
245;2016-12-02 16:44:01;10;45;18.6;85;6.9;1017.4;0.3;0.7;W;1020.6;4.6;6.9;2496.9;
246;2016-12-02 16:54:01;10;45;18.6;85;6.8;1017.4;0.3;0.7;NE;1020.6;4.5;6.8;2496.9;
247;2016-12-02 17:04:01;10;45;18.6;85;6.8;1017.4;0.3;1.7;NW;1020.6;4.5;5.8;2496.9;
248;2016-12-02 17:14:01;10;45;18.6;85;6.9;1017.4;0.3;0.7;SE;1020.6;4.6;6.9;2496.9;
249;2016-12-02 17:24:01;10;45;18.6;85;6.8;1017.3;0.7;1.4;W;1020.5;4.5;6.1;2496.9;
250;2016-12-02 17:34:01;10;45;18.6;86;6.9;1017.3;0.3;0.7;S;1020.5;4.7;6.9;2496.9;
251;2016-12-02 17:44:01;10;45;18.6;86;6.9;1017.2;0.7;1.0;N;1020.4;4.7;6.9;2496.9;
252;2016-12-02 17:54:01;10;45;18.6;86;6.9;1017.4;0.7;1.4;NW;1020.6;4.7;6.2;2496.9;
253;2016-12-02 18:04:01;10;44;18.6;86;6.9;1017.2;0.7;1.0;W;1020.4;4.7;6.9;2496.9;
254;2016-12-02 18:14:01;10;45;18.4;86;6.9;1017.2;0.3;0.7;WNW;1020.4;4.7;6.9;2496.9;
255;2016-12-02 18:24:01;10;45;18.4;86;6.9;1017.1;0.7;1.4;NW;1020.3;4.7;6.2;2496.9;
256;2016-12-02 18:34:01;10;45;18.2;86;6.9;1017.1;0.3;1.0;NW;1020.3;4.7;6.9;2496.9;
257;2016-12-02 18:44:01;10;46;18.2;86;6.9;1017.0;0.3;0.7;N;1020.2;4.7;6.9;2496.9;
258;2016-12-02 18:54:01;10;46;18.2;85;7.0;1017.2;0.3;1.0;SW;1020.4;4.7;7.0;2496.9;
259;2016-12-02 19:04:01;10;46;18.2;84;7.0;1017.1;0.0;0.0;NW;1020.3;4.5;7.0;2496.9;
260;2016-12-02 19:14:01;10;46;18.2;84;7.1;1017.1;0.7;1.4;N;1020.3;4.6;6.5;2496.9;
261;2016-12-02 19:24:01;10;46;18.2;84;7.1;1017.0;0.3;1.0;S;1020.2;4.6;7.1;2496.9;
262;2016-12-02 19:34:01;10;47;18.3;84;7.0;1017.0;0.0;0.7;NW;1020.2;4.5;7.0;2496.9;
263;2016-12-02 19:44:01;10;47;18.4;84;7.1;1016.9;0.7;1.4;N;1020.1;4.6;6.5;2496.9;
264;2016-12-02 19:54:01;10;46;18.4;84;7.1;1016.9;0.3;0.7;NW;1020.1;4.6;7.1;2496.9;
265;2016-12-02 20:04:01;10;47;18.4;85;7.1;1016.9;0.3;1.0;SW;1020.1;4.8;7.1;2496.9;
266;2016-12-02 20:14:01;10;48;18.6;84;7.1;1016.9;0.0;0.3;NW;1020.1;4.6;7.1;2496.9;
267;2016-12-02 20:24:01;10;49;18.6;84;7.1;1016.9;0.3;0.7;W;1020.1;4.6;7.1;2496.9;
268;2016-12-02 20:34:01;10;50;18.7;85;7.1;1016.8;0.0;0.3;W;1020.0;4.8;7.1;2496.9;
269;2016-12-02 20:44:01;10;47;18.8;85;7.1;1016.8;0.3;0.7;W;1020.0;4.8;7.1;2496.9;
270;2016-12-02 20:54:01;10;47;18.7;85;7.0;1016.6;0.7;1.7;SW;1019.8;4.7;6.0;2496.9;
271;2016-12-02 21:04:01;10;47;18.8;85;7.0;1016.7;0.0;0.7;W;1019.9;4.7;7.0;2496.9;
272;2016-12-02 21:14:01;10;47;18.9;85;7.1;1016.5;0.0;0.3;E;1019.7;4.8;7.1;2496.9;
273;2016-12-02 21:24:01;10;47;18.9;85;7.0;1016.4;0.0;0.3;W;1019.6;4.7;7.0;2496.9;
274;2016-12-02 21:34:01;10;47;19.0;85;7.1;1016.6;0.3;1.0;S;1019.8;4.8;7.1;2496.9;
275;2016-12-02 21:44:01;10;47;19.0;85;7.1;1016.5;0.7;1.0;W;1019.7;4.8;7.1;2496.9;
276;2016-12-02 21:54:01;10;47;19.1;85;7.1;1016.7;1.0;2.0;NW;1019.9;4.8;5.8;2496.9;
277;2016-12-02 22:04:01;10;47;19.1;85;7.1;1016.6;0.7;1.0;NW;1019.8;4.8;7.1;2496.9;
278;2016-12-02 22:14:01;10;47;19.2;86;7.0;1016.6;0.3;0.7;NW;1019.8;4.8;7.0;2496.9;
279;2016-12-02 22:24:01;10;46;19.1;86;7.0;1016.6;0.3;1.0;SE;1019.8;4.8;7.0;2496.9;
280;2016-12-02 22:34:01;10;46;19.0;87;6.9;1016.7;0.3;1.0;S;1019.9;4.9;6.9;2496.9;
281;2016-12-02 22:44:01;10;46;19.0;87;6.9;1016.6;0.7;1.4;SSW;1019.8;4.9;6.2;2496.9;
282;2016-12-02 22:54:01;10;46;19.0;87;6.9;1016.6;0.7;1.4;NW;1019.8;4.9;6.2;2496.9;
283;2016-12-02 23:04:01;10;47;18.9;87;6.9;1016.6;0.7;1.4;N;1019.8;4.9;6.2;2496.9;
284;2016-12-02 23:14:01;10;47;18.9;87;6.9;1016.6;0.7;1.4;NW;1019.8;4.9;6.2;2496.9;